SCP
0 0 0 0 0 0 0 0 0 0 0 0 0 0 0 0 0 0 0 0 0 0 0 0 0 0 0 0 0 0 0 0 0 0 0 0 0 0 0 0 0 0 0
0 0 0 0 0 0 0 0 0 0 0 0 0 0 0 0 0 0 0 0 0 0 0 0 0 0 0 0 0 0 0 0 0 0 0 0 0 0 0 0 0 0 0
0 0 0 0 0 0 0 0 0 0 0 0 0 0 0 0 0 0 0 0 0 0 0 0 0 0 0 0 0 0 0 0 0 0 0 0 0 0 0 0 0 0 0
0 0 0 0 0 0 0 0 0 0 0 0 0 0 0 0 0 0 0 0 0 0 0 0 0 0 0 0 0 0 0 0 0 0 0 0 0 0 0 0 0 0 0
0 0 0 0 0 0 0 0 0 0 0 0 0 0 0 0 0 0 0 0 0 0 0 0 0 0 0 0 0 0 0 0 0 0 0 0 0 0 0 0 0 0 0
0 0 0 0 0 0 0 0 0 0 0 0 0 0 0 0 0 0 0 0 0 0 0 0 0 0 0 0 0 0 0 0 0 0 0 0 0 0 0 0 0 0 0
0 0 0 0 0 0 0 0 0 0 0 0 0 0 0 0 0 0 0 0 0 0 0 0 0 0 0 0 0 0 0 0 0 0 0 0 0 0 0 0 0 0 0
0 0 0 0 0 0 0 0 0 0 0 0 0 0 0 0 0 0 0 0 0 0 0 0 0 0 0 0 0 0 0 0 0 0 0 0 0 0 0 0 0 0 0
0 0 0 0 0 0 0 0 0 0 0 0 0 0 0 0 0 0 0 0 0 0 0 0 0 0 0 0 0 0 0 0 0 0 0 0 0 0 0 0 0 0 0
0 0 0 0 0 0 0 0 0 0 0 0 0 0 0 0 0 0 -0 -0 -0 -0 -0 -0 -0 0 -0 0 0 0 0 0 0 0 0 0 0 0 0 0 0 0 0
0 0 0 0 0 0 0 0 0 0 0 0 0 0 0 -0 -0 -0 -0 -0 -0 -0 -0 -0 -0 -0 0 0 0 0 0 0 0 0 0 0 0 0 0 0 0 0 0
0 0 0 0 0 0 0 0 0 -0 -0 -0 -0 0 -0 0 -0 -0 -0 -0 -0 -0 -0 -0 -0 -0 0 0 0 0 0 0 0 0 0 0 0 0 0 0 0 0 0
0 0 0 0 0 -0 -0 -0 -0 -0 -0 -0 -0 -0 -0 -0 -0 -0 -0 -0 -0 -0 -0 -0 -0 -0 0 0 0 0 0 0 0 0 0 0 0 0 0 0 0 0 0
0 -0 -0 -0 -0 -0 -0 -0 -0 -0 -0 -0 -0 -0 -0 -0 -0 -0 -0 -0 -0 -0 -0 -0 -0 -0 0 0 0 0 0 0 0 0 0 0 0 0 0 0 0 0 0
0 -0 -0 -0 -0 -0 -0 -0 -0 0 0 0 0 0 0 0 0 0 0 0 0 0 0 0 0 0 0 0 0 0 0 0 0 0 0 0 0 0 0 0 0 0 0
-0 -0 -0 -0 -0 -0 -0 -0 0 0 0 0 0 0 0 0 0 0 0 0 0 0 0 0 0 0 0 0 0 0 0 0 0 0 0 0 0 0 0 0 0 0 0
-0 -0 -0 -0 -0 -0 -0 -0 -0 -0 0 0 0 0 0 0 0 0 0 0 0 0 0 0 0 0 0 0 0 0 0 0 0 0 0 0 0 0 0 0 0 0 0
0 -0 -0 -0 -0 -0 -0 -0 0 0 -0 0 0 0 0 0 0 0 0 0 0 0 0 0 0 0 0 0 0 0 0 0 0 0 0 0 0 0 0 0 0 0 0
0 -0 -0 -0 -0 -0 -0 -0 0 0 0 0 0 0 0 0 0 0 0 0 0 0 0 0 0 0 0 0 0 0 0 0 0 0 0 0 0 0 0 0 0 0 0
0 -0 -0 -0 -0 -0 -0 -0 -0 0 0 0 0 0 0 0 0 0 0 0 0 0 0 0 0 0 0 0 0 0 0 0 0 0 0 0 0 0 0 0 0 0 0
-0 -0 -0 -0 -0 -0 -0 -0 0 0 0 0 0 0 0 0 0 0 0 0 0 0 0 0 0 0 0 0 0 0 0 0 0 0 0 0 0 0 0 0 0 0 0
-0 -0 -0 -0 -0 0 0 0 0 0 0 0 0 0 0 0 0 0 0 0 0 0 0 0 0 0 0 0 0 0 0 0 0 0 0 0 0 0 0 0 0 0 0
0 0 0 0 0 0 0 0 0 0 0 0 0 0 0 0 0 0 0 0 0 0 0 0 0 0 0 0 0 0 0 0 0 0 0 0 0 0 0 0 0 0 0
0 0 0 0 0 0 0 0 0 0 0 0 0 0 -0 -0 -0 0 0 0 0 0 0 0 0 0 0 0 0 0 0 0 0 0 0 0 0 0 0 0 0 0 0
0 0 0 0 0 0 0 0 0 0 0 0 0 0 -0 0 0 0 0 0 0 0 0 0 0 0 0 -0 0 0 0 0 0 0 0 0 0 0 0 0 0 0 0
0 0 0 0 0 0 0 0 0 0 0 0 0 0 0 0 0 0 0 0 0 0 0 0 0 0 -0 0 0 -0 -0 0 0 0 0 0 0 0 0 0 0 0 0
Wind_Speed_500mb
28 26 22 20 17 12 9 5 4 7 12 18 22 26 30 31 34 39 45 48 52 55 62 65 67 62 65 65 73 78 90 86 97 95 87 89 90 83 77 67 66 69 68
15 12 9 8 6 6 7 10 13 17 20 25 28 30 32 35 37 41 45 47 51 59 64 67 75 67 72 74 69 79 94 90 91 101 92 92 95 92 85 76 83 79 76
6 6 9 12 15 18 22 26 30 34 37 40 41 42 43 43 43 42 45 48 52 59 61 67 75 74 85 86 88 85 83 85 94 94 102 101 103 102 93 86 84 88 80
16 17 20 25 28 33 38 43 48 54 58 60 62 62 59 56 50 50 50 52 57 59 62 66 69 74 83 84 90 89 98 95 91 99 95 102 106 101 98 97 95 96 99
23 24 28 34 39 42 47 51 57 63 67 70 70 67 65 64 60 56 55 58 63 68 69 71 76 78 81 82 85 91 90 98 102 99 99 98 105 103 110 114 103 107 111
25 31 30 40 44 47 51 57 62 64 64 65 65 65 62 60 59 60 62 64 67 73 80 80 81 83 86 88 89 91 96 102 102 98 96 96 120 113 108 117 115 115 123
31 36 41 42 42 43 45 48 51 53 55 57 59 62 64 64 63 62 60 65 71 75 80 84 89 91 91 91 91 95 99 98 103 109 113 112 116 119 115 119 119 126 133
29 33 36 40 45 48 47 49 51 55 58 62 62 63 67 68 68 69 72 75 78 80 83 85 90 97 98 92 92 97 99 106 113 110 110 129 125 118 123 128 118 127 126
26 31 38 45 48 52 55 58 60 62 62 64 66 69 70 69 67 67 70 75 80 85 88 90 94 99 99 87 88 98 105 113 112 115 120 124 116 115 120 123 120 112 111
34 39 43 48 52 56 58 61 64 68 72 73 74 72 73 74 70 70 70 72 83 90 94 95 94 99 104 93 83 89 106 128 111 111 106 118 118 122 115 128 134 132 112
40 44 47 51 56 61 63 66 71 74 76 77 81 81 81 81 83 80 76 70 72 83 90 98 98 93 87 88 83 89 101 108 114 101 109 112 120 124 124 129 133 138 126
43 48 52 57 63 68 73 74 76 79 84 87 90 92 88 87 86 89 88 71 65 70 84 91 95 89 88 91 93 100 100 101 108 110 105 113 119 133 135 127 122 126 142
51 57 62 65 69 72 78 82 85 84 87 93 96 100 102 97 97 93 91 76 67 72 82 91 91 94 98 106 105 99 81 88 95 100 113 118 111 113 119 126 119 114 121
63 67 71 76 79 80 81 83 87 88 88 89 92 98 105 106 102 97 92 99 97 90 89 98 103 101 101 105 108 110 109 103 106 101 109 110 109 101 117 123 116 112 119
65 70 74 78 82 86 85 86 87 84 81 81 80 85 94 110 101 84 93 100 104 100 97 105 100 100 103 105 106 105 100 92 95 98 97 102 102 103 114 118 114 115 112
67 71 74 79 82 85 89 95 85 85 82 77 73 72 83 85 100 92 90 94 100 99 101 100 98 99 92 98 100 101 97 95 98 94 96 96 92 105 110 112 113 120 115
68 72 76 78 81 84 86 89 101 96 85 79 77 73 73 83 86 93 93 96 96 91 87 84 76 82 87 89 91 94 99 98 95 95 97 93 87 93 104 107 112 115 108
66 69 73 75 77 80 83 87 89 96 104 99 86 81 78 76 79 86 84 90 97 89 82 89 90 86 75 93 99 96 98 99 95 94 92 92 94 91 98 103 106 107 107
62 65 67 69 71 72 75 78 81 86 90 95 97 87 82 82 80 71 80 80 87 95 96 99 95 93 89 85 84 98 96 99 99 94 93 94 91 96 102 102 101 108 108
55 56 58 61 64 66 67 72 77 80 83 86 88 89 91 88 90 93 86 85 87 92 95 97 96 93 87 86 83 83 96 93 95 95 97 96 96 98 105 99 100 103 109
54 57 60 64 68 70 69 70 72 75 79 82 83 83 72 77 86 87 89 88 88 92 97 96 96 91 87 83 82 72 86 92 91 91 94 100 99 100 106 104 103 105 102
53 56 60 63 66 67 68 70 71 73 76 80 82 82 77 79 81 84 85 87 89 90 93 94 91 90 88 85 81 82 76 79 86 89 89 97 100 102 104 99 101 103 103
50 54 57 59 62 65 68 68 70 72 74 76 78 80 79 80 80 81 82 85 91 94 97 91 89 95 88 83 79 75 76 69 77 81 88 94 95 98 101 99 97 95 97
50 55 60 62 65 66 67 69 70 71 73 74 76 77 78 78 77 79 81 86 91 96 97 93 90 94 98 91 81 72 68 61 63 74 77 90 91 93 92 92 91 97 104
53 55 59 63 67 69 70 70 72 72 73 74 76 77 77 76 74 75 81 85 90 97 95 96 94 96 99 93 83 76 70 58 52 55 67 76 87 89 91 93 91 96 99
55 57 59 62 64 66 68 71 71 73 75 75 76 75 75 75 71 72 78 84 91 93 92 95 98 99 98 98 91 93 75 60 49 46 43 62 72 83 86 86 86 94 103
Wind_Direction_500mb
101 101 107 110 112 111 103 83 21 336 311 302 298 297 295 294 286 281 279 277 276 275 277 277 276 278 279 286 292 289 283 279 265 281 289 288 280 279 269 254 248 243 245
82 78 71 69 67 52 28 4 351 340 334 324 315 306 297 293 288 284 284 280 282 281 278 279 282 282 279 278 282 287 281 279 275 275 285 283 281 276 273 267 252 244 244
9 343 329 320 318 320 321 321 321 319 317 314 312 308 306 302 296 291 287 283 277 273 274 276 278 280 277 279 279 277 273 274 276 279 279 283 280 272 269 265 260 245 246
325 316 313 313 314 313 314 314 314 315 314 312 309 307 304 301 298 295 291 286 281 277 275 272 271 272 274 275 277 276 277 272 272 271 275 272 260 268 265 260 260 255 243
315 322 313 315 313 310 310 311 311 311 310 308 306 303 302 301 300 294 288 285 284 282 279 278 276 275 275 273 273 274 274 272 268 261 260 258 256 260 262 262 259 259 242
316 319 321 312 314 314 313 314 314 312 310 308 307 305 304 303 303 302 298 290 283 281 281 280 279 279 277 276 275 273 266 266 265 256 254 259 261 267 267 256 258 246 236
328 328 327 323 324 326 326 323 321 319 319 318 318 318 319 319 319 315 310 302 295 290 287 285 283 279 278 278 278 278 278 275 263 261 259 264 259 264 266 261 257 252 249
339 341 339 338 340 339 338 336 331 330 329 327 326 325 325 327 328 325 321 316 309 303 300 296 292 288 284 284 286 281 278 277 275 269 260 260 256 263 259 265 269 265 253
349 348 346 343 341 339 339 337 336 332 331 330 329 328 328 329 332 328 322 317 312 308 306 304 301 297 292 292 286 280 277 271 267 270 272 273 267 262 264 256 255 239 240
352 351 349 344 340 338 337 335 333 331 329 329 327 327 328 329 333 332 331 323 315 314 310 306 303 300 300 301 293 285 277 271 276 274 270 270 267 265 263 260 255 245 237
346 344 342 339 335 333 332 331 329 326 324 324 322 324 327 331 332 332 331 325 318 311 307 306 303 300 293 292 290 282 274 276 273 275 272 267 266 265 258 259 256 247 238
338 336 333 332 331 329 327 326 324 324 323 323 322 322 325 327 328 330 330 321 310 302 303 303 302 298 292 290 287 282 281 281 277 273 271 266 261 260 259 257 259 257 249
330 329 328 327 326 325 324 324 324 325 324 324 324 322 322 324 324 327 327 319 309 302 296 298 297 294 290 282 275 274 279 280 279 274 267 260 262 259 257 262 256 259 250
327 327 327 324 323 322 321 321 320 321 322 321 320 320 319 318 321 324 322 316 310 305 302 299 299 295 291 288 284 279 279 276 272 269 266 265 261 260 257 257 253 255 236
323 324 324 323 322 320 318 318 317 316 319 316 312 312 311 311 313 312 310 309 307 304 303 298 293 290 290 290 288 287 285 278 271 269 266 262 256 253 253 254 251 243 224
326 328 328 325 323 321 319 316 313 311 312 312 308 306 306 302 307 312 311 309 306 307 304 295 289 291 286 288 284 282 278 273 273 271 270 264 253 248 247 245 242 234 222
329 329 328 326 325 323 321 320 318 318 317 314 315 313 308 309 310 312 316 316 311 308 301 296 296 295 285 283 281 278 276 271 270 271 269 265 254 252 241 234 233 227 215
330 330 328 327 327 326 324 321 320 319 319 320 321 320 319 316 315 318 321 319 318 318 310 307 306 296 300 286 283 280 277 274 268 267 262 262 254 250 240 232 227 220 214
332 332 329 326 325 322 320 319 317 317 318 319 321 323 328 326 322 319 324 331 328 322 319 314 310 309 301 292 296 281 281 276 271 266 261 256 254 248 243 236 229 221 213
334 332 332 332 331 330 329 326 323 322 321 322 324 326 329 333 324 328 335 336 336 328 322 318 315 313 310 304 295 297 284 281 276 268 260 252 250 249 245 239 229 220 213
335 341 341 339 338 336 332 329 327 325 323 322 322 326 324 320 325 333 335 337 337 331 326 326 321 318 316 314 308 300 295 288 281 273 259 253 250 241 243 238 232 222 213
345 340 340 339 337 334 332 331 330 328 327 325 324 326 330 332 334 333 336 339 339 337 333 329 330 327 322 318 315 307 300 294 288 277 264 256 251 246 240 234 227 220 209
342 337 340 339 337 336 334 333 331 329 328 328 328 329 331 332 334 336 338 341 342 342 341 339 339 335 332 326 319 314 310 297 290 289 273 261 254 245 240 231 223 213 206
341 344 340 338 338 337 336 334 332 330 329 329 330 332 332 333 335 339 342 343 345 345 345 346 348 344 342 336 327 320 314 307 289 286 286 268 254 249 239 228 219 212 204
345 343 340 338 338 337 335 334 333 332 331 331 331 332 333 334 336 341 345 347 347 347 347 352 352 349 347 344 340 335 321 311 298 285 284 279 262 248 238 229 217 210 201
343 340 338 337 336 335 333 332 332 332 331 332 331 332 333 334 336 340 346 349 348 347 351 354 355 352 352 349 347 346 335 318 309 295 294 282 268 251 239 229 215 208 204
Wind_Speed_850mb
28 26 22 20 17 12 9 5 4 7 12 18 22 26 30 31 34 39 45 48 52 55 62 65 67 62 65 65 73 78 90 86 97 95 87 89 90 83 77 67 66 69 68
15 12 9 8 6 6 7 10 13 17 20 25 28 30 32 35 37 41 45 47 51 59 64 67 75 67 72 74 69 79 94 90 91 101 92 92 95 92 85 76 83 79 76
6 6 9 12 15 18 22 26 30 34 37 40 41 42 43 43 43 42 45 48 52 59 61 67 75 74 85 86 88 85 83 85 94 94 102 101 103 102 93 86 84 88 80
16 17 20 25 28 33 38 43 48 54 58 60 62 62 59 56 50 50 50 52 57 59 62 66 69 74 83 84 90 89 98 95 91 99 95 102 106 101 98 97 95 96 99
23 24 28 34 39 42 47 51 57 63 67 70 70 67 65 64 60 56 55 58 63 68 69 71 76 78 81 82 85 91 90 98 102 99 99 98 105 103 110 114 103 107 111
25 31 30 40 44 47 51 57 62 64 64 65 65 65 62 60 59 60 62 64 67 73 80 80 81 83 86 88 89 91 96 102 102 98 96 96 120 113 108 117 115 115 123
31 36 41 42 42 43 45 48 51 53 55 57 59 62 64 64 63 62 60 65 71 75 80 84 89 91 91 91 91 95 99 98 103 109 113 112 116 119 115 119 119 126 133
29 33 36 40 45 48 47 49 51 55 58 62 62 63 67 68 68 69 72 75 78 80 83 85 90 97 98 92 92 97 99 106 113 110 110 129 125 118 123 128 118 127 126
26 31 38 45 48 52 55 58 60 62 62 64 66 69 70 69 67 67 70 75 80 85 88 90 94 99 99 87 88 98 105 113 112 115 120 124 116 115 120 123 120 112 111
34 39 43 48 52 56 58 61 64 68 72 73 74 72 73 74 70 70 70 72 83 90 94 95 94 99 104 93 83 89 106 128 111 111 106 118 118 122 115 128 134 132 112
40 44 47 51 56 61 63 66 71 74 76 77 81 81 81 81 83 80 76 70 72 83 90 98 98 93 87 88 83 89 101 108 114 101 109 112 120 124 124 129 133 138 126
43 48 52 57 63 68 73 74 76 79 84 87 90 92 88 87 86 89 88 71 65 70 84 91 95 89 88 91 93 100 100 101 108 110 105 113 119 133 135 127 122 126 142
51 57 62 65 69 72 78 82 85 84 87 93 96 100 102 97 97 93 91 76 67 72 82 91 91 94 98 106 105 99 81 88 95 100 113 118 111 113 119 126 119 114 121
63 67 71 76 79 80 81 83 87 88 88 89 92 98 105 106 102 97 92 99 97 90 89 98 103 101 101 105 108 110 109 103 106 101 109 110 109 101 117 123 116 112 119
65 70 74 78 82 86 85 86 87 84 81 81 80 85 94 110 101 84 93 100 104 100 97 105 100 100 103 105 106 105 100 92 95 98 97 102 102 103 114 118 114 115 112
67 71 74 79 82 85 89 95 85 85 82 77 73 72 83 85 100 92 90 94 100 99 101 100 98 99 92 98 100 101 97 95 98 94 96 96 92 105 110 112 113 120 115
68 72 76 78 81 84 86 89 101 96 85 79 77 73 73 83 86 93 93 96 96 91 87 84 76 82 87 89 91 94 99 98 95 95 97 93 87 93 104 107 112 115 108
66 69 73 75 77 80 83 87 89 96 104 99 86 81 78 76 79 86 84 90 97 89 82 89 90 86 75 93 99 96 98 99 95 94 92 92 94 91 98 103 106 107 107
62 65 67 69 71 72 75 78 81 86 90 95 97 87 82 82 80 71 80 80 87 95 96 99 95 93 89 85 84 98 96 99 99 94 93 94 91 96 102 102 101 108 108
55 56 58 61 64 66 67 72 77 80 83 86 88 89 91 88 90 93 86 85 87 92 95 97 96 93 87 86 83 83 96 93 95 95 97 96 96 98 105 99 100 103 109
54 57 60 64 68 70 69 70 72 75 79 82 83 83 72 77 86 87 89 88 88 92 97 96 96 91 87 83 82 72 86 92 91 91 94 100 99 100 106 104 103 105 102
53 56 60 63 66 67 68 70 71 73 76 80 82 82 77 79 81 84 85 87 89 90 93 94 91 90 88 85 81 82 76 79 86 89 89 97 100 102 104 99 101 103 103
50 54 57 59 62 65 68 68 70 72 74 76 78 80 79 80 80 81 82 85 91 94 97 91 89 95 88 83 79 75 76 69 77 81 88 94 95 98 101 99 97 95 97
50 55 60 62 65 66 67 69 70 71 73 74 76 77 78 78 77 79 81 86 91 96 97 93 90 94 98 91 81 72 68 61 63 74 77 90 91 93 92 92 91 97 104
53 55 59 63 67 69 70 70 72 72 73 74 76 77 77 76 74 75 81 85 90 97 95 96 94 96 99 93 83 76 70 58 52 55 67 76 87 89 91 93 91 96 99
55 57 59 62 64 66 68 71 71 73 75 75 76 75 75 75 71 72 78 84 91 93 92 95 98 99 98 98 91 93 75 60 49 46 43 62 72 83 86 86 86 94 103
Wind_Direction_850mb
101 101 107 110 112 111 103 83 21 336 311 302 298 297 295 294 286 281 279 277 276 275 277 277 276 278 279 286 292 289 283 279 265 281 289 288 280 279 269 254 248 243 245
82 78 71 69 67 52 28 4 351 340 334 324 315 306 297 293 288 284 284 280 282 281 278 279 282 282 279 278 282 287 281 279 275 275 285 283 281 276 273 267 252 244 244
9 343 329 320 318 320 321 321 321 319 317 314 312 308 306 302 296 291 287 283 277 273 274 276 278 280 277 279 279 277 273 274 276 279 279 283 280 272 269 265 260 245 246
325 316 313 313 314 313 314 314 314 315 314 312 309 307 304 301 298 295 291 286 281 277 275 272 271 272 274 275 277 276 277 272 272 271 275 272 260 268 265 260 260 255 243
315 322 313 315 313 310 310 311 311 311 310 308 306 303 302 301 300 294 288 285 284 282 279 278 276 275 275 273 273 274 274 272 268 261 260 258 256 260 262 262 259 259 242
316 319 321 312 314 314 313 314 314 312 310 308 307 305 304 303 303 302 298 290 283 281 281 280 279 279 277 276 275 273 266 266 265 256 254 259 261 267 267 256 258 246 236
328 328 327 323 324 326 326 323 321 319 319 318 318 318 319 319 319 315 310 302 295 290 287 285 283 279 278 278 278 278 278 275 263 261 259 264 259 264 266 261 257 252 249
339 341 339 338 340 339 338 336 331 330 329 327 326 325 325 327 328 325 321 316 309 303 300 296 292 288 284 284 286 281 278 277 275 269 260 260 256 263 259 265 269 265 253
349 348 346 343 341 339 339 337 336 332 331 330 329 328 328 329 332 328 322 317 312 308 306 304 301 297 292 292 286 280 277 271 267 270 272 273 267 262 264 256 255 239 240
352 351 349 344 340 338 337 335 333 331 329 329 327 327 328 329 333 332 331 323 315 314 310 306 303 300 300 301 293 285 277 271 276 274 270 270 267 265 263 260 255 245 237
346 344 342 339 335 333 332 331 329 326 324 324 322 324 327 331 332 332 331 325 318 311 307 306 303 300 293 292 290 282 274 276 273 275 272 267 266 265 258 259 256 247 238
338 336 333 332 331 329 327 326 324 324 323 323 322 322 325 327 328 330 330 321 310 302 303 303 302 298 292 290 287 282 281 281 277 273 271 266 261 260 259 257 259 257 249
330 329 328 327 326 325 324 324 324 325 324 324 324 322 322 324 324 327 327 319 309 302 296 298 297 294 290 282 275 274 279 280 279 274 267 260 262 259 257 262 256 259 250
327 327 327 324 323 322 321 321 320 321 322 321 320 320 319 318 321 324 322 316 310 305 302 299 299 295 291 288 284 279 279 276 272 269 266 265 261 260 257 257 253 255 236
323 324 324 323 322 320 318 318 317 316 319 316 312 312 311 311 313 312 310 309 307 304 303 298 293 290 290 290 288 287 285 278 271 269 266 262 256 253 253 254 251 243 224
326 328 328 325 323 321 319 316 313 311 312 312 308 306 306 302 307 312 311 309 306 307 304 295 289 291 286 288 284 282 278 273 273 271 270 264 253 248 247 245 242 234 222
329 329 328 326 325 323 321 320 318 318 317 314 315 313 308 309 310 312 316 316 311 308 301 296 296 295 285 283 281 278 276 271 270 271 269 265 254 252 241 234 233 227 215
330 330 328 327 327 326 324 321 320 319 319 320 321 320 319 316 315 318 321 319 318 318 310 307 306 296 300 286 283 280 277 274 268 267 262 262 254 250 240 232 227 220 214
332 332 329 326 325 322 320 319 317 317 318 319 321 323 328 326 322 319 324 331 328 322 319 314 310 309 301 292 296 281 281 276 271 266 261 256 254 248 243 236 229 221 213
334 332 332 332 331 330 329 326 323 322 321 322 324 326 329 333 324 328 335 336 336 328 322 318 315 313 310 304 295 297 284 281 276 268 260 252 250 249 245 239 229 220 213
335 341 341 339 338 336 332 329 327 325 323 322 322 326 324 320 325 333 335 337 337 331 326 326 321 318 316 314 308 300 295 288 281 273 259 253 250 241 243 238 232 222 213
345 340 340 339 337 334 332 331 330 328 327 325 324 326 330 332 334 333 336 339 339 337 333 329 330 327 322 318 315 307 300 294 288 277 264 256 251 246 240 234 227 220 209
342 337 340 339 337 336 334 333 331 329 328 328 328 329 331 332 334 336 338 341 342 342 341 339 339 335 332 326 319 314 310 297 290 289 273 261 254 245 240 231 223 213 206
341 344 340 338 338 337 336 334 332 330 329 329 330 332 332 333 335 339 342 343 345 345 345 346 348 344 342 336 327 320 314 307 289 286 286 268 254 249 239 228 219 212 204
345 343 340 338 338 337 335 334 333 332 331 331 331 332 333 334 336 341 345 347 347 347 347 352 352 349 347 344 340 335 321 311 298 285 284 279 262 248 238 229 217 210 201
343 340 338 337 336 335 333 332 332 332 331 332 331 332 333 334 336 340 346 349 348 347 351 354 355 352 352 349 347 346 335 318 309 295 294 282 268 251 239 229 215 208 204